[[{"header":{"parameterUnit":"m.s-1","parameterCategory":1,"la1":30.2991,"la2":30.254,"lo1":-89.0895,"lo2":-89.0444,"dy":0.0017,"dx":0.0017,"nx":28,"ny":28,"refTime":"2025-04-07T03:00:00:Z","depth":0,"parameterNumber":2,"parameterNumberName":"U-component_of_WINDS"},"data":[0,0,0,0,0,0,0,0,0,0,0,0,0,0,0,0,0,0,0,0,0,0,0,0,0,0,0,0,0,0,0,0,0,0,0,0,0,0,0,0,0,0,0,0,0,0,0,0,0,0,0,0,0,0,0,0,0,0,2.0595,2.0596,0,2.0675,2.0676,2.0677,2.0695,2.0694,2.0694,2.0693,2.0776,2.0778,2.0781,0,0,0,0,0,0,0,0,0,0,0,0,0,2.0462,2.0464,2.0595,2.0596,2.0597,2.0675,2.0676,2.0677,2.0695,2.0694,2.0694,2.0693,2.0775,2.0778,2.0781,0,0,0,0,0,0,0,0,0,0,0,0,0,2.0529,2.0465,2.0595,2.0616,2.0618,2.0675,2.0676,2.0677,2.0695,2.0694,2.0693,2.0693,2.0774,2.0778,2.0782,2.0824,0,0,2.0794,2.0796,0,0,0,0,0,0,0,0,2.0525,2.0533,2.0612,2.0614,2.0617,2.0674,2.0659,2.0726,2.0695,2.0666,2.0693,2.0692,2.0743,2.0749,2.0766,2.0828,2.0831,2.0795,2.0797,2.0799,2.08,0,0,0,0,0,0,0,2.052,2.053,2.0627,2.0613,2.0616,2.0622,2.063,2.0672,2.0708,2.0668,2.067,2.0679,2.0744,2.0762,2.0768,2.0832,2.0795,2.0798,2.0801,2.0802,2.0935,2.0936,0,0,0,0,0,0,2.0512,2.0526,2.0624,2.0629,2.0568,2.0625,2.0634,2.0657,2.0708,2.0715,2.068,2.068,2.0756,2.0763,2.0771,2.0825,2.0799,2.0803,2.0805,2.0934,2.0935,2.0936,0,0,0,0,0,0,2.0509,2.052,2.0621,2.0578,2.0591,2.0628,2.0653,2.0659,2.0677,2.0716,2.0723,2.0691,2.0755,2.0765,2.0811,2.0828,2.0805,2.0808,2.0933,2.0934,2.0936,2.0932,0,0,0,0,0,0,2.0505,2.0519,2.0535,2.0578,2.0594,2.0659,2.0654,2.0661,2.0684,2.0684,2.0729,2.0735,2.0755,2.0805,2.0815,2.0833,2.0811,2.0931,2.0933,2.0935,2.0931,2.0934,2.0936,0,0,0,0,0,2.05,2.053,2.0535,2.0547,2.0614,2.066,2.0669,2.0691,2.0685,2.0701,2.0727,2.0734,2.0825,2.0809,2.0821,2.0841,2.093,2.0933,2.0935,2.093,2.0933,2.0936,0,0,0,0,0,0,2.0487,2.0536,2.0542,2.0587,2.0619,2.0663,2.0684,2.0693,2.0727,2.0726,2.0753,2.0763,2.0807,2.0829,2.0811,2.0885,2.0877,2.0882,2.087,2.0873,2.0875,2.0869,2.0815,0,0,0,0,0,2.049,2.0522,2.0564,2.06,2.0615,2.0647,2.0668,2.0682,2.0716,2.073,2.0759,2.0792,2.0829,2.0852,2.0887,2.0935,2.0945,2.0954,2.0956,2.0958,2.0962,2.0991,2.0996,2.0944,2.0944,2.0944,0,0,2.0495,2.0526,2.0545,2.0598,2.0624,2.0659,2.0658,2.0694,2.072,2.0736,2.0781,2.0803,2.0843,2.089,2.0912,2.0909,2.0979,2.0961,2.0962,2.0966,2.0994,2.0999,2.1003,2.0946,2.0946,2.0946,0,0,2.0523,2.0549,2.0583,2.0609,2.0649,2.0671,2.0679,2.0721,2.0737,2.0783,2.0796,2.0827,2.0889,2.0917,2.0939,2.098,2.0988,2.0991,2.1003,2.103,2.1034,2.1038,2.1054,2.1059,2.0994,2.0994,2.0994,0,2.0525,2.0576,2.0599,2.0635,2.0658,2.0674,2.071,2.0734,2.0784,2.0801,2.0797,2.0875,2.0903,2.0958,2.0968,2.0985,2.0996,2.0985,2.1032,2.1036,2.104,2.1055,2.1061,2.0994,2.0994,2.0994,2.0994,0,2.0577,2.0613,2.0636,2.0683,2.071,2.0745,2.0774,2.0798,2.0811,2.0833,2.088,2.0914,2.0957,2.0971,2.0984,2.1029,2.1026,2.1026,2.1019,2.1044,2.1059,2.1065,2.0995,2.0995,2.0995,2.0995,0,0,2.0598,2.0659,2.0667,2.069,2.0736,2.0765,2.0802,2.0844,2.0865,2.0899,2.0932,2.0984,2.0986,2.1011,2.1027,2.1051,2.1083,2.1049,2.1051,2.1055,2.1136,2.1136,2.1142,2.1089,2.109,2.1091,2.1134,0,2.0633,2.0698,2.072,2.0775,2.0809,2.0826,2.0858,2.0891,2.0913,2.0946,2.0971,2.1008,2.1007,2.1022,2.1047,2.1074,2.11,2.1071,2.112,2.1122,2.111,2.115,2.1149,2.1188,2.1139,2.114,2.1141,0,2.0681,2.0716,2.0774,2.0818,2.0833,2.0861,2.0903,2.0934,2.0972,2.0987,2.1016,2.1031,2.1071,2.1061,2.1119,2.1099,2.112,2.1137,2.1139,2.1145,2.1133,2.1158,2.12,2.1206,2.115,2.115,2.1149,0,2.0692,2.0754,2.0797,2.0816,2.0867,2.0887,2.091,2.0947,2.0972,2.1009,2.1025,2.1066,2.1089,2.1121,2.1147,2.1137,2.1203,2.1194,2.1217,2.1216,2.123,2.1229,2.1277,2.1243,2.1243,2.1242,2.1242,0,2.0728,2.0763,2.0803,2.0829,2.087,2.0896,2.0936,2.096,2.0993,2.1026,2.1043,2.1073,2.1105,2.114,2.1161,2.1206,2.1216,2.123,2.1235,2.1229,2.1227,2.1243,2.1242,2.1244,2.1244,2.1243,2.1243,0,2.0747,2.0775,2.0823,2.0869,2.0881,2.0909,2.0948,2.0976,2.0999,2.104,2.1051,2.1088,2.113,2.1159,2.1214,2.1228,2.1277,2.1281,2.1264,2.1267,2.1288,2.1286,2.1349,2.136,2.1317,2.1317,2.1318,0,2.0768,2.0796,2.0844,2.0867,2.089,2.0926,2.0952,2.0979,2.1006,2.1052,2.1074,2.1118,2.1154,2.1221,2.1253,2.1295,2.1301,2.1321,2.1308,2.1301,2.1303,2.1301,2.1305,2.1323,2.1323,2.1323,2.1324,0,2.0804,2.0817,2.0852,2.0894,2.0924,2.0957,2.0992,2.101,2.1043,2.1072,2.1116,2.1144,2.12,2.1243,2.1289,2.1313,2.1325,2.1327,2.1335,2.1329,2.1318,2.1326,2.127,2.1326,2.1326,2.1325,2.1325,2.1325,2.0825,2.0851,2.089,2.093,2.0959,2.0991,2.1019,2.1046,2.1083,2.113,2.1144,2.119,2.1229,2.1292,2.1317,2.1354,2.1352,2.1363,2.1366,2.1368,2.1369,2.1312,2.1362,2.1362,2.1362,2.1362,2.1362,0,2.0863,2.0889,2.0925,2.0973,2.1005,2.1012,2.1051,2.1077,2.1117,2.1153,2.1188,2.1239,2.1282,2.1318,2.1363,2.1385,2.1392,2.1396,2.1395,2.1401,2.1367,2.1356,2.139,2.139,2.139,2.139,2.139,2.139,2.0886,2.0931,2.0949,2.1009,2.1035,2.1079,2.1101,2.1131,2.116,2.1216,2.1251,2.1274,2.1311,2.1358,2.1399,2.1408,2.1424,2.1428,2.1439,2.1406,2.1403,2.14,2.139,2.1431,2.1431,2.147,2.147,2.147]},{"header":{"parameterUnit":"m.s-1","parameterCategory":1,"la1":30.2991,"la2":30.254,"lo1":-89.0895,"lo2":-89.0444,"dy":0.0017,"dx":0.0017,"nx":28,"ny":28,"refTime":"2025-04-07T03:00:00:Z","depth":0,"parameterNumber":3,"parameterNumberName":"V-component_of_WINDS"},"data":[0,0,0,0,0,0,0,0,0,0,0,0,0,0,0,0,0,0,0,0,0,0,0,0,0,0,0,0,0,0,0,0,0,0,0,0,0,0,0,0,0,0,0,0,0,0,0,0,0,0,0,0,0,0,0,0,0,0,-3.6227,-3.6228,0,-3.6283,-3.6284,-3.6285,-3.6357,-3.6358,-3.6359,-3.636,-3.6414,-3.6415,-3.6415,0,0,0,0,0,0,0,0,0,0,0,0,0,-3.6181,-3.6182,-3.6227,-3.6228,-3.6229,-3.6283,-3.6284,-3.6285,-3.6356,-3.6358,-3.6359,-3.6361,-3.6414,-3.6414,-3.6415,0,0,0,0,0,0,0,0,0,0,0,0,0,-3.6215,-3.6182,-3.6227,-3.6271,-3.6276,-3.6283,-3.6284,-3.6285,-3.6356,-3.6358,-3.636,-3.6361,-3.6414,-3.6414,-3.6415,-3.6383,0,0,-3.6417,-3.6417,0,0,0,0,0,0,0,0,-3.6213,-3.6217,-3.6264,-3.6268,-3.6273,-3.6315,-3.6288,-3.6318,-3.6356,-3.6325,-3.636,-3.6362,-3.638,-3.6383,-3.639,-3.6386,-3.6388,-3.6417,-3.6417,-3.6417,-3.6417,0,0,0,0,0,0,0,-3.6211,-3.6215,-3.6249,-3.6265,-3.627,-3.6288,-3.6294,-3.6294,-3.6342,-3.6328,-3.6334,-3.6339,-3.6382,-3.6389,-3.6391,-3.6389,-3.6417,-3.6417,-3.6417,-3.6418,-3.6363,-3.6361,0,0,0,0,0,0,-3.6202,-3.6213,-3.6248,-3.6251,-3.6247,-3.6287,-3.6295,-3.63,-3.6342,-3.635,-3.6338,-3.6343,-3.6387,-3.6391,-3.6393,-3.6359,-3.6417,-3.6418,-3.6418,-3.6364,-3.6362,-3.636,0,0,0,0,0,0,-3.6201,-3.6205,-3.6245,-3.6233,-3.624,-3.6286,-3.6291,-3.63,-3.6306,-3.6349,-3.6358,-3.6336,-3.6389,-3.6393,-3.6386,-3.6362,-3.6418,-3.6418,-3.6367,-3.6364,-3.6361,-3.629,0,0,0,0,0,0,-3.6199,-3.6204,-3.6192,-3.6233,-3.624,-3.6237,-3.629,-3.63,-3.6307,-3.6314,-3.635,-3.6357,-3.639,-3.6384,-3.6386,-3.6364,-3.6419,-3.6369,-3.6365,-3.6362,-3.6294,-3.6285,-3.6277,0,0,0,0,0,-3.6198,-3.6169,-3.6191,-3.6195,-3.6227,-3.6235,-3.6239,-3.6279,-3.6305,-3.6294,-3.6322,-3.6356,-3.6365,-3.6383,-3.6386,-3.6363,-3.637,-3.6366,-3.6362,-3.6298,-3.6287,-3.6277,0,0,0,0,0,0,-3.6123,-3.6175,-3.62,-3.6184,-3.6205,-3.6247,-3.6234,-3.6265,-3.6278,-3.6284,-3.6332,-3.6339,-3.6326,-3.6344,-3.6364,-3.6335,-3.6373,-3.6369,-3.6323,-3.6313,-3.6304,-3.6299,-3.6419,0,0,0,0,0,-3.6105,-3.6108,-3.6153,-3.6134,-3.6144,-3.6187,-3.6192,-3.6221,-3.6244,-3.6253,-3.628,-3.63,-3.6308,-3.6312,-3.6321,-3.6298,-3.6307,-3.6284,-3.6276,-3.6268,-3.6264,-3.6254,-3.6244,-3.6347,-3.6347,-3.6347,0,0,-3.6066,-3.6095,-3.6094,-3.612,-3.6139,-3.6141,-3.6193,-3.6193,-3.6194,-3.6252,-3.6247,-3.6268,-3.6294,-3.6279,-3.6274,-3.6294,-3.6238,-3.6263,-3.6257,-3.6257,-3.6249,-3.6239,-3.623,-3.6345,-3.6345,-3.6345,0,0,-3.5998,-3.602,-3.6007,-3.6027,-3.6056,-3.6086,-3.6083,-3.6121,-3.6138,-3.6134,-3.6178,-3.6181,-3.6193,-3.621,-3.622,-3.6161,-3.6192,-3.6162,-3.6116,-3.6105,-3.6097,-3.609,-3.6069,-3.606,-3.6158,-3.6158,-3.6158,0,-3.5946,-3.5951,-3.5996,-3.5993,-3.6003,-3.6059,-3.6046,-3.6062,-3.6092,-3.6098,-3.6121,-3.6138,-3.6159,-3.6149,-3.6135,-3.6142,-3.614,-3.6157,-3.6095,-3.6088,-3.6083,-3.6062,-3.6054,-3.6154,-3.6155,-3.6155,-3.6155,0,-3.5886,-3.5889,-3.5875,-3.5905,-3.5914,-3.5905,-3.595,-3.5953,-3.5983,-3.601,-3.6006,-3.6034,-3.605,-3.6051,-3.6078,-3.6045,-3.6056,-3.6086,-3.6125,-3.6068,-3.605,-3.6043,-3.6149,-3.615,-3.6151,-3.6152,0,0,-3.5768,-3.5826,-3.5819,-3.5834,-3.5873,-3.5875,-3.5871,-3.5888,-3.589,-3.591,-3.5907,-3.5917,-3.5946,-3.5957,-3.5988,-3.5979,-3.593,-3.6011,-3.6012,-3.5994,-3.5895,-3.5871,-3.5862,-3.5953,-3.5952,-3.5951,-3.5893,0,-3.5705,-3.57,-3.5743,-3.5726,-3.573,-3.5783,-3.5779,-3.5802,-3.5828,-3.5835,-3.5863,-3.587,-3.5907,-3.5915,-3.5909,-3.5937,-3.5911,-3.5943,-3.5949,-3.5949,-3.5939,-3.5852,-3.5827,-3.577,-3.5886,-3.5885,-3.5884,0,-3.563,-3.5648,-3.5632,-3.5673,-3.5676,-3.5671,-3.5692,-3.5698,-3.5725,-3.5745,-3.5759,-3.5795,-3.5793,-3.5832,-3.583,-3.585,-3.5856,-3.5871,-3.587,-3.587,-3.5911,-3.5849,-3.5753,-3.5744,-3.5874,-3.5874,-3.5875,0,-3.5545,-3.5565,-3.5559,-3.557,-3.5617,-3.5613,-3.5632,-3.5662,-3.567,-3.5688,-3.5694,-3.5711,-3.572,-3.5732,-3.5772,-3.5796,-3.5765,-3.5807,-3.578,-3.5779,-3.5769,-3.5769,-3.5672,-3.5776,-3.5776,-3.5776,-3.5776,0,-3.5469,-3.5457,-3.5521,-3.5516,-3.5505,-3.5555,-3.5542,-3.5567,-3.5593,-3.5594,-3.5642,-3.5642,-3.5696,-3.5702,-3.5733,-3.5727,-3.573,-3.5746,-3.5754,-3.574,-3.5738,-3.5743,-3.5747,-3.5774,-3.5774,-3.5775,-3.5775,0,-3.537,-3.5413,-3.5409,-3.5456,-3.5467,-3.5457,-3.5496,-3.5494,-3.5525,-3.5526,-3.5529,-3.5576,-3.5586,-3.5628,-3.5647,-3.5668,-3.5651,-3.5668,-3.5641,-3.5646,-3.5617,-3.5619,-3.5518,-3.5507,-3.5619,-3.5618,-3.5617,0,-3.5318,-3.531,-3.5357,-3.5362,-3.538,-3.5387,-3.5397,-3.5446,-3.5454,-3.5486,-3.548,-3.5494,-3.5508,-3.5522,-3.5557,-3.5573,-3.5589,-3.5553,-3.5592,-3.5579,-3.5588,-3.5587,-3.5586,-3.5544,-3.5542,-3.5541,-3.554,0,-3.5221,-3.5243,-3.5255,-3.5275,-3.5286,-3.5304,-3.5325,-3.5326,-3.5381,-3.5387,-3.5399,-3.541,-3.5431,-3.5444,-3.5467,-3.5486,-3.5522,-3.5529,-3.5523,-3.5508,-3.5493,-3.55,-3.5617,-3.553,-3.5531,-3.5532,-3.5532,-3.5533,-3.5143,-3.5139,-3.5171,-3.5184,-3.5206,-3.5224,-3.5225,-3.5257,-3.5268,-3.529,-3.5318,-3.5326,-3.5356,-3.539,-3.5407,-3.5414,-3.5434,-3.5426,-3.5423,-3.542,-3.5413,-3.5494,-3.5418,-3.5418,-3.5419,-3.5419,-3.5419,0,-3.5047,-3.5071,-3.5083,-3.5111,-3.5121,-3.5157,-3.5183,-3.5188,-3.5195,-3.522,-3.5234,-3.5248,-3.5262,-3.53,-3.5317,-3.5315,-3.5332,-3.5318,-3.5318,-3.5322,-3.5395,-3.5397,-3.5304,-3.5304,-3.5304,-3.5304,-3.5304,-3.5304,-3.4998,-3.4993,-3.502,-3.5027,-3.5051,-3.5061,-3.5072,-3.509,-3.5111,-3.5124,-3.5137,-3.5162,-3.5193,-3.5213,-3.5228,-3.5239,-3.5242,-3.5222,-3.5238,-3.5306,-3.5316,-3.5327,-3.5329,-3.5223,-3.5223,-3.5164,-3.5164,-3.5163]}]]